Zurück zum Katalog

STARLINK-3527

AktivKommunikationVLEO
NORAD 51726·PAYLOAD·🇺🇸 United States

Gestartet Feb 21, 2022 von Cape Canaveral Space Force Station

Loading…

Nächste Überflüge (nächste 24 Stunden)

TLE

AktuellSource: CelesTrak SupGP

Epoche: Sep 15, 2026, 01:17 UTC

1 51726C 22016N   26258.05395833 -.00008530  00000+0 -45890-3 0  2585
2 51726  53.2127 185.4947 0002166  92.4256 249.7801 15.14358599    16

Verfolge STARLINK-3527 in Echtzeit mit AllMySat

Download on the App Store